Temp
-13 -14 -14 -14 -14 -15 -15 -15 -15 -15 -15 -16 -16 -16 -16 -16 -16 -16 -16 -16 -16 -16 -16 -16 -15 -15 -15 -15 -15 -15 -15 -15
-14 -14 -14 -14 -15 -16 -16 -16 -15 -15 -16 -16 -16 -16 -16 -16 -16 -16 -16 -17 -17 -16 -16 -16 -16 -16 -16 -16 -16 -16 -16 -15
-15 -15 -15 -15 -16 -17 -17 -17 -17 -17 -17 -17 -18 -18 -18 -17 -17 -17 -17 -17 -17 -17 -17 -17 -17 -17 -17 -17 -17 -17 -17 -16
-16 -16 -16 -16 -17 -17 -18 -18 -18 -18 -18 -19 -19 -18 -18 -18 -18 -18 -18 -18 -18 -18 -18 -18 -18 -18 -18 -18 -18 -17 -18 -17
-17 -17 -17 -17 -17 -18 -18 -19 -19 -19 -19 -19 -18 -18 -19 -19 -19 -19 -19 -19 -19 -19 -19 -19 -19 -19 -18 -18 -18 -18 -17 -17
-17 -17 -18 -18 -17 -18 -18 -19 -19 -19 -19 -19 -18 -19 -19 -19 -19 -20 -20 -20 -20 -20 -20 -19 -19 -19 -19 -19 -19 -18 -17 -17
-17 -18 -18 -18 -18 -19 -19 -19 -19 -19 -19 -19 -19 -19 -20 -20 -20 -20 -20 -20 -20 -20 -20 -20 -20 -20 -19 -19 -19 -18 -17 -17
-19 -19 -19 -19 -19 -20 -20 -19 -19 -19 -19 -19 -20 -20 -20 -20 -20 -20 -20 -20 -21 -21 -21 -20 -20 -20 -20 -19 -19 -18 -18 -18
-19 -19 -19 -19 -20 -20 -20 -20 -20 -20 -20 -20 -20 -21 -21 -21 -21 -21 -22 -22 -22 -22 -21 -21 -21 -20 -20 -20 -19 -18 -18 -18
-19 -20 -19 -19 -20 -20 -20 -20 -20 -21 -21 -21 -21 -21 -21 -22 -22 -23 -23 -23 -23 -23 -22 -22 -21 -21 -20 -20 -19 -19 -19 -18
-20 -20 -20 -21 -21 -21 -21 -21 -21 -21 -21 -21 -21 -22 -22 -23 -23 -24 -24 -24 -24 -24 -24 -23 -22 -21 -21 -20 -19 -19 -19 -18
-21 -21 -21 -21 -21 -22 -22 -22 -22 -21 -21 -21 -22 -22 -23 -24 -24 -24 -24 -24 -23 -24 -24 -23 -22 -22 -21 -20 -20 -20 -19 -19
-22 -22 -22 -22 -22 -22 -22 -22 -22 -22 -22 -22 -22 -23 -24 -24 -23 -23 -23 -23 -24 -24 -24 -23 -23 -22 -21 -20 -20 -20 -20 -19
-23 -22 -22 -22 -22 -22 -22 -22 -22 -22 -23 -23 -24 -24 -24 -24 -24 -24 -24 -24 -25 -24 -23 -23 -23 -22 -21 -21 -20 -20 -20 -20
-23 -23 -22 -22 -22 -23 -23 -23 -22 -23 -23 -24 -24 -24 -24 -24 -24 -24 -24 -24 -24 -24 -24 -24 -23 -23 -22 -22 -22 -22 -21 -21
-23 -23 -23 -23 -23 -23 -23 -22 -23 -23 -24 -24 -24 -24 -24 -24 -25 -24 -24 -24 -24 -24 -24 -24 -24 -24 -23 -23 -23 -22 -22 -22
-23 -23 -23 -23 -23 -23 -23 -23 -24 -24 -24 -24 -24 -24 -25 -25 -25 -24 -24 -25 -25 -25 -25 -25 -24 -24 -24 -24 -23 -23 -23 -23
-23 -24 -23 -23 -23 -23 -23 -23 -24 -24 -24 -24 -24 -24 -25 -25 -25 -24 -24 -25 -25 -25 -25 -25 -25 -24 -24 -24 -24 -24 -24 -24
-24 -24 -23 -23 -23 -23 -23 -23 -24 -24 -24 -24 -24 -24 -25 -25 -25 -24 -25 -25 -25 -25 -25 -25 -25 -24 -24 -25 -25 -25 -25 -25
Height
5748 5746 5742 5738 5735 5731 5728 5725 5723 5720 5716 5713 5710 5706 5702 5699 5696 5692 5688 5684 5680 5676 5673 5669 5665 5661 5658 5655 5652 5648 5646 5647
5737 5735 5732 5728 5724 5722 5719 5716 5712 5709 5706 5703 5700 5695 5692 5688 5685 5680 5675 5671 5667 5663 5658 5654 5650 5647 5643 5640 5636 5633 5628 5629
5726 5724 5721 5717 5714 5711 5708 5705 5702 5698 5695 5692 5688 5684 5681 5676 5672 5668 5663 5659 5655 5651 5646 5642 5638 5633 5629 5626 5623 5620 5615 5615
5716 5713 5710 5706 5703 5698 5695 5693 5690 5687 5683 5680 5677 5674 5669 5664 5659 5655 5650 5646 5642 5638 5634 5630 5626 5622 5617 5614 5611 5609 5606 5603
5706 5703 5699 5694 5690 5686 5685 5682 5678 5675 5672 5670 5666 5661 5656 5651 5646 5642 5637 5633 5629 5625 5621 5617 5613 5610 5607 5604 5601 5599 5597 5595
5695 5692 5687 5682 5681 5679 5676 5671 5668 5665 5661 5658 5654 5648 5644 5640 5635 5630 5626 5621 5617 5613 5609 5605 5602 5599 5596 5594 5592 5591 5589 5588
5685 5682 5676 5676 5673 5672 5665 5660 5657 5654 5651 5647 5642 5637 5632 5628 5623 5617 5613 5609 5606 5602 5598 5594 5592 5590 5587 5585 5584 5583 5582 5580
5674 5671 5669 5668 5665 5660 5655 5652 5649 5645 5641 5635 5630 5624 5619 5613 5608 5604 5599 5595 5592 5589 5586 5584 5582 5580 5578 5577 5576 5575 5574 5573
5663 5661 5661 5659 5653 5649 5647 5643 5639 5634 5630 5625 5620 5614 5608 5602 5596 5590 5585 5581 5577 5575 5574 5573 5572 5571 5569 5568 5568 5566 5566 5565
5653 5652 5650 5647 5644 5640 5637 5634 5630 5626 5621 5616 5611 5604 5596 5590 5584 5579 5575 5570 5567 5564 5562 5562 5562 5562 5560 5560 5560 5559 5558 5558
5643 5641 5639 5637 5633 5630 5628 5625 5621 5616 5612 5607 5601 5593 5586 5580 5575 5571 5568 5564 5559 5556 5554 5552 5552 5552 5551 5551 5551 5551 5550 5550
5633 5631 5628 5626 5624 5621 5619 5615 5611 5607 5602 5597 5590 5583 5578 5574 5570 5566 5562 5557 5553 5549 5547 5545 5543 5543 5544 5543 5543 5542 5541 5541
5623 5620 5619 5618 5615 5612 5610 5606 5602 5598 5592 5587 5581 5575 5571 5567 5563 5558 5553 5549 5546 5544 5541 5539 5537 5536 5536 5535 5535 5534 5533 5531
5613 5611 5610 5607 5605 5604 5600 5596 5593 5587 5582 5577 5572 5568 5564 5559 5555 5550 5546 5542 5540 5539 5536 5534 5532 5530 5529 5528 5527 5526 5524 5522
5603 5602 5600 5598 5596 5593 5590 5587 5582 5577 5573 5569 5565 5561 5556 5553 5549 5545 5542 5538 5535 5533 5530 5528 5526 5523 5521 5520 5519 5518 5516 5514
5592 5590 5590 5589 5586 5584 5582 5578 5573 5570 5565 5562 5558 5554 5550 5547 5544 5540 5537 5534 5530 5527 5525 5522 5520 5518 5516 5515 5514 5512 5509 5506
5581 5581 5580 5578 5577 5576 5573 5569 5566 5562 5558 5555 5551 5547 5543 5540 5537 5534 5531 5528 5525 5523 5520 5518 5516 5513 5511 5510 5507 5504 5502 5499
5573 5571 5571 5570 5569 5567 5564 5561 5557 5554 5551 5547 5543 5539 5536 5533 5530 5527 5525 5522 5520 5518 5516 5514 5511 5509 5506 5504 5501 5499 5495 5492
5564 5563 5562 5562 5560 5559 5555 5551 5548 5546 5543 5539 5534 5531 5529 5526 5523 5521 5519 5517 5515 5513 5510 5508 5505 5502 5500 5497 5494 5491 5488 5485
Wind_Speed
44 45 47 47 47 47 49 50 51 53 53 51 48 46 51 52 51 50 49 49 49 51 52 53 55 57 58 59 58 58 59 57
48 48 50 51 50 48 51 53 54 55 53 52 49 52 55 55 53 51 50 50 50 52 53 54 56 57 57 58 56 57 57 54
46 48 48 50 50 50 53 54 53 52 51 48 48 50 56 54 52 50 50 52 53 54 54 55 56 55 54 50 47 46 44 42
46 46 48 53 54 55 54 53 53 52 49 47 50 55 55 54 52 53 55 55 54 54 53 53 52 50 45 42 41 38 37 37
46 45 48 54 55 55 53 53 51 48 47 53 56 55 54 55 57 58 56 56 55 54 53 51 48 44 40 38 36 35 32 28
46 48 49 52 54 53 53 47 49 48 55 57 57 55 56 58 57 56 55 54 52 50 48 46 45 40 38 35 33 35 29 27
44 47 53 54 55 48 44 46 47 52 57 59 57 59 59 58 57 58 56 54 51 48 46 44 41 37 35 31 32 33 30 29
40 46 48 49 41 41 46 49 53 56 56 57 60 61 61 61 61 61 58 55 54 50 46 43 39 36 34 30 30 25 25 27
40 40 39 34 38 44 49 50 51 53 56 59 60 60 60 60 56 50 47 45 44 44 42 39 37 35 33 28 30 27 28 30
39 35 42 49 51 51 49 49 51 54 56 56 57 57 53 50 45 42 42 40 40 39 35 34 34 33 30 27 29 26 28 28
36 34 39 41 44 47 46 48 52 52 53 53 53 48 45 39 37 31 32 34 32 33 31 29 28 28 26 26 27 26 28 31
35 36 40 43 44 43 47 49 48 49 49 51 45 40 36 32 33 35 36 35 32 32 27 26 22 22 23 23 25 27 31 34
34 39 42 40 44 45 45 44 44 47 50 42 37 32 31 33 35 38 37 34 32 25 24 23 20 19 20 21 24 29 33 34
39 40 37 42 43 42 40 41 44 46 40 35 32 30 33 36 36 33 32 28 25 22 22 21 20 20 21 23 26 30 31 31
35 39 45 45 40 37 37 41 40 38 35 32 31 32 33 32 29 27 28 25 23 25 24 23 22 21 22 24 26 26 26 27
42 44 43 39 35 33 35 37 35 33 31 32 32 32 30 30 28 28 27 28 26 24 21 21 20 19 20 22 24 26 28 30
44 40 36 33 32 33 35 36 32 30 29 32 34 34 31 30 29 28 28 26 23 20 19 20 20 22 23 25 27 29 31 32
38 33 31 31 32 33 34 33 31 30 32 35 36 35 31 29 30 29 27 24 22 21 21 22 23 25 26 28 29 30 32 33
30 30 29 28 29 31 32 32 31 31 33 35 35 28 26 28 30 28 23 21 22 22 24 25 27 28 29 30 31 32 33 34
Wind_Direction
283 283 283 285 287 287 288 288 290 292 292 292 290 285 290 295 296 297 299 299 296 294 291 289 286 285 284 282 282 280 277 274
287 289 289 289 288 289 288 288 289 289 290 288 287 290 297 300 301 301 300 298 297 295 294 292 291 290 289 287 286 283 281 281
287 286 286 286 285 284 285 286 287 289 288 286 291 292 300 300 301 299 298 297 296 295 295 294 292 292 290 288 286 283 282 281
282 283 284 285 286 287 286 288 288 291 291 290 289 295 299 300 299 298 299 300 299 298 298 296 294 292 291 287 285 285 288 285
281 282 282 282 281 282 286 287 289 287 289 292 299 301 303 301 300 301 301 300 300 300 298 297 296 297 289 287 285 288 291 286
282 282 280 278 282 288 291 283 282 286 293 298 301 300 301 300 300 300 300 300 299 298 298 298 297 295 289 286 284 283 290 295
278 276 276 281 284 284 274 276 283 292 297 297 298 300 301 301 300 301 300 297 296 296 299 299 296 294 289 282 280 279 286 295
279 275 281 281 274 281 284 286 293 296 294 298 301 302 303 303 303 300 298 295 291 292 295 296 293 292 288 279 278 278 286 289
289 283 270 268 266 280 286 289 293 295 298 300 300 301 302 303 304 305 302 297 291 286 286 289 287 287 284 277 274 275 283 283
286 276 265 270 279 285 292 293 293 295 297 299 301 304 307 307 306 304 302 300 295 287 279 278 279 282 279 275 270 272 278 284
286 280 279 278 281 285 288 292 295 296 299 301 307 308 308 309 311 313 314 304 302 298 287 278 276 278 277 274 270 274 283 290
279 275 273 275 282 287 291 294 294 297 302 306 307 309 310 304 310 309 305 306 305 301 291 284 280 279 277 275 277 289 292 294
273 274 278 282 285 288 291 293 298 303 304 305 306 308 311 308 307 308 308 301 301 298 293 291 287 281 284 292 296 299 297 294
278 276 275 286 288 289 295 300 302 304 305 303 307 310 313 311 311 311 309 305 295 298 299 295 292 293 297 298 300 298 295 297
281 278 277 288 294 295 299 302 306 308 303 301 309 310 309 313 312 311 309 306 300 302 299 299 301 306 308 308 303 301 302 305
279 282 286 291 291 295 299 307 309 308 303 305 309 307 305 308 308 309 310 309 307 304 304 305 308 309 308 308 310 312 315 314
287 286 286 288 292 290 301 307 302 305 306 305 306 305 300 302 303 305 307 308 308 309 311 312 313 315 316 315 316 317 316 316
282 286 286 288 288 292 304 303 294 297 301 304 302 302 297 297 300 304 307 306 308 308 311 313 314 313 313 313 313 314 315 315
280 283 283 284 288 295 307 302 292 290 295 306 306 299 296 297 299 301 301 301 302 307 312 314 313 312 312 312 313 312 311 309